Retour au catalogue

STARLINK-2266

ActifCommunicationsVLEO
NORAD 47997·PAYLOAD·🇺🇸 United States

Lancé Mar 24, 2021 depuis Cape Canaveral Space Force Station

Loading…

Prochains Passages (prochaines 24 heures)

TLE

FraisSource: CelesTrak SupGP

Époque: Sep 14, 2026, 20:09 UTC

1 47997C 21024W   26257.84006944 -.00026839  00000+0 -86325-3 0  2575
2 47997  53.1583 146.5067 0001409  96.8067  51.9952 15.31708650    10

Suivez STARLINK-2266 en temps réel avec AllMySat

Download on the App Store